Regional Weather Roundup
Issued by NWS Little Rock, AR

Home | Current Version | Previous Version | Text Only | Print | Product List | Glossary Off
Versions: 1 2 3 4 5 6 7 8 9 10 11 12 13 14 15 16 17 18 19 20 21 22 23 24 25 26 27 28 29 30 31 32 33 34 35 36 37 38 39 40 41 42 43 44 45 46 47 48 49 50

477
ASUS44 KLZK 252305
RWRLZK

WEATHER ROUNDUP FOR ARKANSAS
NATIONAL WEATHER SERVICE LITTLE ROCK AR
600 PM CDT MON JUL 25 2016

NOTE: "FAIR" INDICATES FEW OR NO CLOUDS BELOW 12,000 FEET WITH NO
SIGNIFICANT WEATHER AND/OR OBSTRUCTIONS TO VISIBILITY.

ARZ001-003-010-029-260000-
NORTHWEST ARKANSAS

CITY           SKY/WX    TMP DP  RH WIND       PRES   REMARKS
FAYETTEVILLE   PTSUNNY   84  77  79 NW5       29.97R HX  94
FORT SMITH     CLOUDY    85  69  58 E6        29.91F HX  89
HARRISON       MOSUNNY   85  71  63 E9        29.98S HX  90
BENTONVILLE    CLOUDY    84  72  65 N7        30.00R HX  89
ROGERS         CLOUDY    83  73  72 N6        30.00R HX  89
SILOAM SPGS    CLOUDY    84  68  58 SE3       29.99R HX  87
HIGHFILL       CLOUDY    88  76  67 N10       29.98R HX  99
$$

ARZ004-005-016-260000-
NORTH CENTRAL ARKANSAS

CITY           SKY/WX    TMP DP  RH WIND       PRES   REMARKS
BATESVILLE     SUNNY     91  75  59 E7        29.92R HX 102
FLIPPIN        CLOUDY    84  72  65 N5        29.94S HX  89
MTN HOME       SUNNY     88  75  65 CALM      29.96R HX  97
$$

ARZ040-041-260000-
WEST CENTRAL ARKANSAS

CITY           SKY/WX    TMP DP  RH WIND       PRES   REMARKS
MENA           CLOUDY    88  73  62 E6        29.96F HX  96
MOUNT IDA      CLOUDY    78  77  96 CALM      29.93F
$$

ARZ009-017-025-026-028-260000-
NORTHEAST ARKANSAS

CITY           SKY/WX    TMP DP  RH WIND       PRES   REMARKS
CORNING          N/A     84  81  89 E6        29.94S HX  98
JONESBORO      MOSUNNY   87  76  69 E5        29.93R HX  97
NEWPORT        CLOUDY    92  75  57 SE5       29.94R HX 102
WALNUT RIDGE   CLOUDY    81  72  74 N5        29.92F
BLYTHEVILLE    MOSUNNY   85  77  77 E7        29.94F HX  95
$$

ARZ022-023-033-042-044-260000-
CENTRAL ARKANSAS

CITY           SKY/WX    TMP DP  RH WIND       PRES   REMARKS
LITTLE ROCK    MOSUNNY   95  71  45 SE9       29.90F HX 102
N LITTLE ROCK    N/A     92  75  57 S8        29.88F HX 102
SEARCY         SUNNY     94  76  55 SE10      29.92S HX 106
HOT SPRINGS    MOSUNNY   78  76  93 NW6       29.93S
RUSSELLVILLE   SUNNY     93  73  52 VRB3      29.91S HX 102
$$

ARZ036-260000-
EAST ARKANSAS

CITY           SKY/WX    TMP DP  RH WIND       PRES   REMARKS
WEST MEMPHIS   MOSUNNY   90  73  57 E13       29.91F HX  98
$$

ARZ050-053-066-070-073-260000-
SOUTHWEST ARKANSAS

CITY           SKY/WX    TMP DP  RH WIND       PRES   REMARKS
CAMDEN         LGT RAIN  95  70  43 E3        29.89F HX 101
TEXARKANA      CLOUDY    84  72  67 N15G22    29.92R THUNDER HX  89
EL DORADO      MOSUNNY   94  70  45 E6        29.90F HX 100
DE QUEEN       CLOUDY    85  74  69 E5        29.90F HX  92
$$

ARZ056-057-069-260000-
SOUTHEAST ARKANSAS

CITY           SKY/WX    TMP DP  RH WIND       PRES   REMARKS
PINE BLUFF     SUNNY     94  72  48 SE6       29.92S HX 102
STUTTGART      SUNNY     93  72  49 SE8       29.92S HX 100
MONTICELLO     SUNNY     94  76  55 E7        29.92R HX 106

$$






USA.gov is the U.S. government's official web portal to all federal, state and local government web resources and services.